sat.trackr.live / text

‹ back to catalog

APRIZESAT 5

NORAD 37792 · 2011-044E

PAYLOAD ACTIVE UNKNOWN

§ Identity

Operator
Country
US
Launch date
2011-08-17
Launch site
DLS
Launch vehicle
Mass (kg)
RCS (m²)
0.11

Purposes: tech_demo

External: N2YO · Heavens-Above · Gunter

§ Orbital elements

Epoch: 2026-05-24T18:23:46.425120Z

Period
97.23 min
Inclination
98.2450°
Eccentricity
0.0053659
Mean motion
14.81015560 rev/d
Perigee alt
588.5 km
Apogee alt
663.7 km
Semi-major
7,004.3 km
B*
1.0829e-4
RAAN
77.1453°
Arg perigee
78.4225°
Mean anomaly
282.3004°
Rev number
79,532

§ Raw data

APRIZESAT 51 37792U 11044E   26144.76650955  .00000801  00000+0  10829-3 0  99992 37792  98.2450  77.1453 0053659  78.4225 282.3004 14.81015560795327

JSON: /api/v1/satellites/37792 · /tle

For live sub-satellite position, see the globe view (requires WebGL).

§ Visibility from observer

Set your observer location to see the next 7 days of passes ≥ 10°. The values pass through the URL so the page stays shareable.

No JS? Fill the form by hand. The geolocation button needs JavaScript.